This demonstration page uses our WeatherBlox Daily Observations layout. Learn more.

Hourly Observations for January 13, 2016

Temp ( °F °C ) Dew Point ( °F °C ) Humidity (%) Winds ( mph kmh ) Pressure ( in mb ) Visibility ( mi km ) Precip ( " mm )
12:15 am 00:15 Mostly Cloudy 32 0 21 -6 64 64 WSW 7 11 30.18 1022 10 16.09344 0 0
12:35 am 00:35 Mostly Cloudy 32 0 21 -6 64 64 WSW 7 11 30.12 1020 10 16.09344 0 0
12:55 am 00:55 Mostly Cloudy 32 0 21 -6 64 64 W 9 15 30.12 1020 10 16.09344 0 0
1:15 am 01:15 Mostly Cloudy 32 0 21 -6 64 64 W 7 11 30.12 1020 10 16.09344 0 0
1:35 am 01:35 Cloudy 32 0 21 -6 64 64 W 8 13 30.12 1020 10 16.09344 0 0
1:55 am 01:55 Cloudy 32 0 21 -6 64 64 W 7 11 30.12 1020 10 16.09344 0 0
2:15 am 02:15 Cloudy 32 0 21 -6 64 64 W 8 13 30.12 1020 10 16.09344 0 0
2:35 am 02:35 Cloudy 32 0 21 -6 64 64 W 6 9 30.12 1020 10 16.09344 0 0
2:55 am 02:55 Cloudy 32 0 21 -6 64 64 W 9 15 30.12 1020 10 16.09344 0 0
3:15 am 03:15 Cloudy 32 0 21 -6 64 64 W 9 15 30.12 1020 10 16.09344 0 0
3:35 am 03:35 Mostly Cloudy 30 -1 21 -6 69 69 W 8 13 30.15 1021 10 16.09344 0 0
3:55 am 03:55 Partly Cloudy 30 -1 21 -6 69 69 W 8 13 30.15 1021 10 16.09344 0 0
4:15 am 04:15 Partly Cloudy 30 -1 21 -6 69 69 W 9 15 30.15 1021 10 16.09344 0 0
4:35 am 04:35 Cloudy 30 -1 21 -6 69 69 W 9 15 30.15 1021 10 16.09344 0 0
4:55 am 04:55 Mostly Cloudy 28 -2 21 -6 74 74 W 9 15 30.15 1021 10 16.09344 0 0
5:15 am 05:15 Partly Cloudy 28 -2 21 -6 74 74 W 8 13 30.15 1021 10 16.09344 0 0
5:35 am 05:35 Clear 28 -2 21 -6 74 74 W 6 9 30.12 1020 10 16.09344 0 0
5:55 am 05:55 Clear 28 -2 21 -6 74 74 W 9 15 30.12 1020 10 16.09344 0 0
6:15 am 06:15 Clear 28 -2 21 -6 74 74 W 8 13 30.12 1020 10 16.09344 0 0
6:35 am 06:35 Clear 27 -3 21 -6 80 80 W 8 13 30.12 1020 10 16.09344 0 0
6:55 am 06:55 Clear 27 -3 21 -6 80 80 W 6 9 30.12 1020 10 16.09344 0 0
7:15 am 07:15 Clear 27 -3 21 -6 80 80 W 6 9 30.12 1020 10 16.09344 0 0
7:35 am 07:35 Clear 25 -4 19 -7 80 80 WSW 6 9 30.15 1021 10 16.09344 0 0
7:55 am 07:55 Clear 27 -3 19 -7 74 74 W 6 9 30.12 1020 10 16.09344 0 0
8:15 am 08:15 Sunny 27 -3 19 -7 74 74 W 6 9 30.12 1020 10 16.09344 0 0
8:35 am 08:35 Sunny 27 -3 21 -6 80 80 WSW 6 9 30.12 1020 10 16.09344 0 0
8:55 am 08:55 Sunny 28 -2 21 -6 74 74 W 6 9 30.12 1020 10 16.09344 0 0
9:15 am 09:15 Sunny 30 -1 21 -6 69 69 WSW 8 13 30.12 1020 10 16.09344 0 0
9:35 am 09:35 Sunny 32 0 23 -5 69 69 W 8 13 30.09 1019 10 16.09344 0 0
9:55 am 09:55 Sunny 32 0 23 -5 69 69 W 10 17 30.09 1019 10 16.09344 0 0
10:15 am 10:15 Sunny 36 2 23 -5 60 60 W 8 13 30.09 1019 10 16.09344 0 0
10:35 am 10:35 Sunny 37 3 25 -4 60 60 W 8 13 30.06 1018 10 16.09344 0 0
10:55 am 10:55 Sunny 37 3 25 -4 60 60 WSW 9 15 30.06 1018 10 16.09344 0 0
11:15 am 11:15 Sunny 39 4 25 -4 56 56 W 9 15 30.06 1018 10 16.09344 0 0
11:35 am 11:35 Sunny 39 4 27 -3 61 61 W 7 11 30.03 1017 10 16.09344 0 0
11:55 am 11:55 Sunny 41 5 27 -3 57 57 WSW 6 9 30.03 1017 10 16.09344 0 0
12:15 pm 12:15 Sunny 43 6 27 -3 53 53 WSW 8 13 29.97 1015 10 16.09344 0 0
12:35 pm 12:35 Sunny 45 7 27 -3 49 49 WSW 7 11 29.97 1015 10 16.09344 0 0
12:55 pm 12:55 Sunny 45 7 27 -3 49 49 WSW 9 15 29.97 1015 10 16.09344 0 0
1:15 pm 13:15 Sunny 46 8 27 -3 46 46 WSW 8 13 29.94 1014 10 16.09344 0 0
1:35 pm 13:35 Sunny 46 8 27 -3 46 46 WSW 8 13 29.94 1014 10 16.09344 0 0
1:55 pm 13:55 Sunny 48 9 27 -3 43 43 SW 8 13 29.88 1012 10 16.09344 0 0
2:15 pm 14:15 Sunny 48 9 27 -3 43 43 SW 9 15 29.88 1012 10 16.09344 0 0
2:35 pm 14:35 Sunny 48 9 25 -4 40 40 WSW 9 15 29.85 1011 10 16.09344 0 0
2:55 pm 14:55 Sunny 50 10 25 -4 37 37 WSW 7 11 29.85 1011 10 16.09344 0 0
3:15 pm 15:15 Sunny 50 10 25 -4 37 37 SW 7 11 29.83 1010 10 16.09344 0 0
3:35 pm 15:35 Sunny 50 10 25 -4 37 37 SW 7 11 29.83 1010 10 16.09344 0 0
3:55 pm 15:55 Sunny 52 11 25 -4 35 35 SW 9 15 29.8 1009 10 16.09344 0 0
4:15 pm 16:15 Sunny 52 11 25 -4 35 35 SW 7 11 29.8 1009 10 16.09344 0 0
4:35 pm 16:35 Sunny 50 10 27 -3 40 40 SSW 5 7 29.83 1010 10 16.09344 0 0
4:55 pm 16:55 Sunny 48 9 25 -4 40 40 SSW 7 11 29.8 1009 10 16.09344 0 0
5:15 pm 17:15 Sunny 46 8 25 -4 43 43 S 8 13 29.8 1009 10 16.09344 0 0
5:35 pm 17:35 Clear 45 7 25 -4 46 46 S 8 13 29.83 1010 10 16.09344 0 0
5:55 pm 17:55 Clear 43 6 25 -4 49 49 SSW 8 13 29.83 1010 10 16.09344 0 0
6:15 pm 18:15 Clear 41 5 25 -4 53 53 SSW 8 13 29.83 1010 10 16.09344 0 0
6:35 pm 18:35 Clear 41 5 25 -4 53 53 SSW 8 13 29.83 1010 10 16.09344 0 0
6:55 pm 18:55 Clear 43 6 25 -4 49 49 SSW 9 15 29.83 1010 10 16.09344 0 0
7:15 pm 19:15 Clear 39 4 25 -4 56 56 SSW 7 11 29.83 1010 10 16.09344 0 0
7:35 pm 19:35 Clear 39 4 25 -4 56 56 SW 9 15 29.83 1010 10 16.09344 0 0
7:55 pm 19:55 Clear 39 4 25 -4 56 56 SSW 10 17 29.83 1010 10 16.09344 0 0
8:15 pm 20:15 Clear 39 4 25 -4 56 56 SSW 10 17 29.8 1009 10 16.09344 0 0
8:35 pm 20:35 Clear 39 4 25 -4 56 56 SSW 8 13 29.8 1009 10 16.09344 0 0
8:55 pm 20:55 Clear 39 4 23 -5 52 52 SSW 9 15 29.8 1009 10 16.09344 0 0
9:15 pm 21:15 Clear 39 4 25 -4 56 56 SSW 9 15 29.77 1008 10 16.09344 0 0
9:35 pm 21:35 Clear 39 4 23 -5 52 52 SSW 7 11 29.77 1008 10 16.09344 0 0
9:55 pm 21:55 Clear 37 3 23 -5 56 56 SW 9 15 29.8 1009 10 16.09344 0 0
10:15 pm 22:15 Clear 39 4 23 -5 52 52 SW 12 19 29.77 1008 10 16.09344 0 0
10:35 pm 22:35 Clear 39 4 23 -5 52 52 SW 9 15 29.77 1008 10 16.09344 0 0
10:55 pm 22:55 Clear 39 4 21 -6 48 48 SW 8 13 29.77 1008 10 16.09344 0 0
11:15 pm 23:15 Clear 39 4 23 -5 52 52 SW 8 13 29.74 1007 10 16.09344 0 0
11:35 pm 23:35 Clear 39 4 23 -5 52 52 SW 8 13 29.74 1007 10 16.09344 0 0
11:55 pm 23:55 Clear 41 5 21 -6 45 45 WSW 10 17 29.74 1007 10 16.09344 0 0

Powered by AerisWeather